TimeMST,TemperatureF,Dew PointF,Humidity,Sea Level PressureIn,VisibilityMPH,Wind Direction,Wind SpeedMPH,Gust SpeedMPH,PrecipitationIn,Events,Conditions,WindDirDegrees,DateUTC
12:15 AM,42.8,33.8,70,30.00,10.0,SSE,10.4,-,N/A,,Mostly Cloudy,160,2014-03-05 07:15:00
12:35 AM,42.8,32.0,66,30.01,10.0,South,10.4,16.1,N/A,,Mostly Cloudy,170,2014-03-05 07:35:00
12:55 AM,42.8,32.0,66,30.02,10.0,South,11.5,-,N/A,,Overcast,170,2014-03-05 07:55:00
1:15 AM,42.8,33.8,70,30.03,10.0,South,10.4,-,N/A,,Overcast,190,2014-03-05 08:15:00
1:35 AM,41.0,33.8,76,30.05,10.0,SW,13.8,-,N/A,Rain,Light Rain,230,2014-03-05 08:35:00
1:55 AM,37.4,35.6,93,30.07,7.0,WSW,10.4,-,0.01,Rain,Rain,240,2014-03-05 08:55:00
2:15 AM,37.4,35.6,93,30.06,10.0,SSW,11.5,-,0.01,Rain,Light Rain,200,2014-03-05 09:15:00
2:35 AM,35.6,33.8,93,30.08,10.0,SSW,11.5,-,0.01,Rain,Light Rain,200,2014-03-05 09:35:00
2:55 AM,35.6,33.8,93,30.08,10.0,South,10.4,18.4,0.01,Rain,Light Rain,190,2014-03-05 09:55:00
3:15 AM,35.6,33.8,93,30.08,10.0,South,17.3,20.7,N/A,,Overcast,170,2014-03-05 10:15:00
3:35 AM,35.6,33.8,93,30.09,10.0,South,12.7,-,N/A,,Overcast,170,2014-03-05 10:35:00
3:55 AM,35.6,33.8,93,30.10,10.0,SSE,6.9,-,N/A,,Overcast,160,2014-03-05 10:55:00
4:15 AM,37.4,33.8,87,30.11,10.0,Calm,Calm,-,N/A,,Overcast,0,2014-03-05 11:15:00
4:35 AM,35.6,33.8,93,30.11,10.0,Calm,Calm,-,N/A,,Overcast,0,2014-03-05 11:35:00
4:55 AM,35.6,33.8,93,30.11,10.0,NNE,4.6,-,N/A,,Mostly Cloudy,20,2014-03-05 11:55:00
5:15 AM,33.8,32.0,93,30.12,10.0,North,5.8,-,N/A,,Scattered Clouds,10,2014-03-05 12:15:00
5:35 AM,33.8,32.0,93,30.12,10.0,North,6.9,-,N/A,,Clear,350,2014-03-05 12:35:00
5:55 AM,33.8,32.0,93,30.12,10.0,North,4.6,-,N/A,,Clear,360,2014-03-05 12:55:00
6:15 AM,33.8,32.0,93,30.12,10.0,NNW,4.6,-,N/A,,Clear,340,2014-03-05 13:15:00
6:25 AM,33.8,32.0,93,30.12,10.0,NNW,5.8,-,N/A,,Clear,340,2014-03-05 13:25:00
2:35 PM,57.2,24.8,29,30.07,10.0,East,11.5,-,N/A,,Clear,100,2014-03-05 21:35:00
2:55 PM,57.2,23.0,27,30.07,10.0,East,8.1,-,N/A,,Clear,100,2014-03-05 21:55:00
3:15 PM,59.0,23.0,25,30.07,10.0,East,5.8,-,N/A,,Clear,80,2014-03-05 22:15:00
3:35 PM,57.2,23.0,27,30.07,10.0,East,11.5,-,N/A,,Clear,80,2014-03-05 22:35:00
3:55 PM,59.0,23.0,25,30.07,10.0,ESE,11.5,-,N/A,,Clear,110,2014-03-05 22:55:00
4:15 PM,55.4,23.0,29,30.07,10.0,East,9.2,-,N/A,,Clear,90,2014-03-05 23:15:00
4:35 PM,55.4,23.0,29,30.07,10.0,East,11.5,-,N/A,,Clear,90,2014-03-05 23:35:00
4:55 PM,55.4,23.0,29,30.08,10.0,ESE,13.8,-,N/A,,Clear,110,2014-03-05 23:55:00
5:15 PM,53.6,23.0,30,30.09,10.0,ESE,11.5,-,N/A,,Clear,110,2014-03-06 00:15:00
5:35 PM,51.8,23.0,33,30.10,10.0,ESE,8.1,-,N/A,,Clear,110,2014-03-06 00:35:00
5:55 PM,50.0,24.8,37,30.10,10.0,East,6.9,-,N/A,,Clear,80,2014-03-06 00:55:00
6:15 PM,46.4,24.8,43,30.11,10.0,East,8.1,-,N/A,,Clear,90,2014-03-06 01:15:00
6:35 PM,46.4,24.8,43,30.12,10.0,East,6.9,-,N/A,,Clear,90,2014-03-06 01:35:00
6:55 PM,44.6,24.8,46,30.12,10.0,NE,4.6,-,N/A,,Clear,50,2014-03-06 01:55:00
7:15 PM,44.6,24.8,46,30.14,10.0,ENE,4.6,-,N/A,,Clear,60,2014-03-06 02:15:00
7:35 PM,42.8,24.8,49,30.14,10.0,NNE,3.5,-,N/A,,Clear,30,2014-03-06 02:35:00
7:55 PM,42.8,26.6,53,30.14,10.0,NNE,4.6,-,N/A,,Clear,30,2014-03-06 02:55:00
8:15 PM,42.8,26.6,53,30.14,10.0,North,5.8,-,N/A,,Clear,10,2014-03-06 03:15:00
8:35 PM,42.8,26.6,53,30.14,10.0,North,5.8,-,N/A,,Clear,360,2014-03-06 03:35:00
8:55 PM,41.0,26.6,57,30.15,10.0,North,8.1,-,N/A,,Clear,350,2014-03-06 03:55:00
9:15 PM,41.0,26.6,57,30.15,10.0,North,9.2,-,N/A,,Clear,350,2014-03-06 04:15:00
9:35 PM,41.0,26.6,57,30.15,10.0,NNW,10.4,-,N/A,,Clear,340,2014-03-06 04:35:00
9:55 PM,39.2,26.6,61,30.15,10.0,North,9.2,-,N/A,,Clear,350,2014-03-06 04:55:00
10:15 PM,37.4,26.6,65,30.15,10.0,WNW,6.9,-,N/A,,Clear,300,2014-03-06 05:15:00
10:35 PM,35.6,26.6,70,30.15,10.0,West,5.8,-,N/A,,Clear,270,2014-03-06 05:35:00
10:55 PM,35.6,26.6,70,30.13,10.0,WNW,10.4,-,N/A,,Clear,290,2014-03-06 05:55:00
11:15 PM,37.4,26.6,65,30.13,10.0,WNW,10.4,-,N/A,,Clear,290,2014-03-06 06:15:00
11:35 PM,35.6,26.6,70,30.12,10.0,NW,6.9,-,N/A,,Clear,310,2014-03-06 06:35:00
11:55 PM,37.4,24.8,60,30.12,10.0,West,11.5,-,N/A,,Clear,280,2014-03-06 06:55:00